[[{"header":{"parameterUnit":"m.s-1","parameterCategory":1,"la1":30.2991,"la2":30.254,"lo1":-89.0895,"lo2":-89.0444,"dy":0.0017,"dx":0.0017,"nx":28,"ny":28,"refTime":"2025-05-19T21:00:00:Z","depth":0,"parameterNumber":2,"parameterNumberName":"U-component_of_WINDS"},"data":[0,0,0,0,0,0,0,0,0,0,0,0,0,0,0,0,0,0,0,0,0,0,0,0,0,0,0,0,0,0,0,0,0,0,0,0,0,0,0,0,0,0,0,0,0,0,0,0,0,0,0,0,0,0,0,0,0,0,-1.9884,-1.9883,0,-1.9808,-1.9807,-1.9806,-1.9738,-1.9737,-1.9736,-1.9736,-1.9656,-1.9655,-1.9654,0,0,0,0,0,0,0,0,0,0,0,0,0,-1.9973,-1.9972,-1.9884,-1.9883,-1.9882,-1.9808,-1.9807,-1.9806,-1.9738,-1.9737,-1.9736,-1.9735,-1.9657,-1.9655,-1.9654,0,0,0,0,0,0,0,0,0,0,0,0,0,-1.9919,-1.9971,-1.9884,-1.984,-1.9835,-1.9808,-1.9807,-1.9805,-1.9738,-1.9737,-1.9736,-1.9735,-1.9657,-1.9655,-1.9653,-1.9664,0,0,-1.9647,-1.9646,0,0,0,0,0,0,0,0,-1.9922,-1.9916,-1.9847,-1.9843,-1.9837,-1.9781,-1.9809,-1.9758,-1.9739,-1.9775,-1.9736,-1.9734,-1.9699,-1.9693,-1.9681,-1.9661,-1.9657,-1.9647,-1.9646,-1.9645,-1.9644,0,0,0,0,0,0,0,-1.9926,-1.9919,-1.9854,-1.9846,-1.984,-1.9824,-1.9815,-1.9799,-1.9744,-1.9772,-1.9767,-1.9759,-1.9696,-1.9684,-1.9679,-1.9656,-1.9647,-1.9645,-1.9644,-1.9643,-1.9641,-1.9643,0,0,0,0,0,0,-1.9937,-1.9923,-1.9856,-1.9852,-1.9878,-1.9823,-1.9813,-1.98,-1.9744,-1.9735,-1.976,-1.9756,-1.9688,-1.9682,-1.9676,-1.9685,-1.9645,-1.9643,-1.9642,-1.964,-1.9642,-1.9643,0,0,0,0,0,0,-1.9939,-1.9932,-1.9859,-1.9886,-1.9875,-1.9823,-1.9809,-1.98,-1.9787,-1.9735,-1.9725,-1.9757,-1.9687,-1.9679,-1.9668,-1.9681,-1.9642,-1.964,-1.9639,-1.9641,-1.9642,-1.9704,0,0,0,0,0,0,-1.9942,-1.9933,-1.9936,-1.9886,-1.9874,-1.9852,-1.981,-1.9799,-1.9784,-1.9778,-1.973,-1.9721,-1.9685,-1.9672,-1.9666,-1.9678,-1.9638,-1.9637,-1.964,-1.9642,-1.97,-1.9707,-1.9713,0,0,0,0,0,-1.9945,-1.9956,-1.9936,-1.9929,-1.9877,-1.9853,-1.9846,-1.9805,-1.9785,-1.9788,-1.9755,-1.9723,-1.9682,-1.9671,-1.9664,-1.9676,-1.9636,-1.9639,-1.9642,-1.9697,-1.9706,-1.9713,0,0,0,0,0,0,-2.0007,-1.9948,-1.9926,-1.9921,-1.9893,-1.9842,-1.9844,-1.9815,-1.9792,-1.9787,-1.9737,-1.9727,-1.9721,-1.9698,-1.9687,-1.9684,-1.9655,-1.9656,-1.9699,-1.9707,-1.9714,-1.9719,-1.9637,0,0,0,0,0,-2.0021,-2.0006,-1.9956,-1.9956,-1.9943,-1.9897,-1.9885,-1.9855,-1.9824,-1.9812,-1.9778,-1.9749,-1.9729,-1.9717,-1.9696,-1.9697,-1.9686,-1.9702,-1.9709,-1.9715,-1.9716,-1.9715,-1.9722,-1.9652,-1.9652,-1.9652,0,0,-2.0047,-2.0014,-2.0007,-1.9968,-1.9942,-1.9929,-1.9887,-1.9874,-1.9863,-1.9809,-1.9797,-1.9772,-1.9736,-1.9731,-1.9728,-1.9711,-1.9733,-1.9718,-1.9723,-1.9721,-1.9719,-1.9726,-1.9731,-1.9654,-1.9653,-1.9653,0,0,-2.0089,-2.0062,-2.006,-2.0036,-1.9999,-1.9968,-1.9968,-1.9922,-1.9903,-1.989,-1.985,-1.9837,-1.9804,-1.9781,-1.9764,-1.9801,-1.977,-1.9796,-1.9829,-1.983,-1.9835,-1.984,-1.9852,-1.9857,-1.9797,-1.9798,-1.9798,0,-2.0127,-2.0105,-2.0062,-2.0052,-2.0036,-1.9988,-1.9986,-1.9965,-1.9923,-1.9913,-1.9896,-1.9855,-1.9827,-1.9817,-1.9826,-1.9815,-1.9813,-1.9799,-1.9838,-1.9842,-1.9846,-1.9857,-1.9862,-1.9801,-1.9801,-1.98,-1.98,0,-2.0153,-2.0139,-2.0141,-2.0102,-2.0087,-2.0081,-2.0038,-2.0028,-2.0001,-1.9973,-1.9961,-1.9927,-1.9898,-1.9894,-1.9868,-1.9881,-1.9872,-1.9847,-1.9816,-1.9856,-1.9866,-1.987,-1.9806,-1.9804,-1.9803,-1.9803,0,0,-2.0228,-2.0168,-2.017,-2.0152,-2.0109,-2.0097,-2.009,-2.0063,-2.0055,-2.0029,-2.0021,-1.9996,-1.9974,-1.9956,-1.9926,-1.9927,-1.9958,-1.9902,-1.99,-1.9913,-1.997,-1.9988,-1.9993,-1.9938,-1.9939,-1.9939,-1.9973,0,-2.0262,-2.0245,-2.0208,-2.0203,-2.0189,-2.0145,-2.0139,-2.0112,-2.0086,-2.0071,-2.0043,-2.0026,-1.9998,-1.9986,-1.9985,-1.9954,-1.9968,-1.9951,-1.993,-1.993,-1.9938,-1.9998,-2.0016,-2.0049,-1.9976,-1.9977,-1.9977,0,-2.0298,-2.0275,-2.0269,-2.0228,-2.0221,-2.0216,-2.0189,-2.0175,-2.0145,-2.0126,-2.0107,-2.0076,-2.0066,-2.004,-2.0026,-2.0015,-2.0005,-1.9989,-1.9989,-1.9984,-1.9955,-1.9994,-2.0059,-2.0063,-1.9983,-1.9983,-1.9982,0,-2.0353,-2.0321,-2.0313,-2.03,-2.0252,-2.0249,-2.0229,-2.0198,-2.0184,-2.0162,-2.0153,-2.0129,-2.0116,-2.0099,-2.0062,-2.0046,-2.0052,-2.0022,-2.0036,-2.0037,-2.0037,-2.0037,-2.01,-2.0034,-2.0033,-2.0033,-2.0033,0,-2.0393,-2.0391,-2.0337,-2.0332,-2.0329,-2.0287,-2.0285,-2.0261,-2.0234,-2.0224,-2.0185,-2.0177,-2.013,-2.0116,-2.0087,-2.0081,-2.0075,-2.006,-2.0052,-2.0062,-2.0064,-2.0053,-2.0049,-2.0035,-2.0034,-2.0034,-2.0034,0,-2.0453,-2.0417,-2.0405,-2.0362,-2.0351,-2.0351,-2.0313,-2.0307,-2.0281,-2.0269,-2.0263,-2.0221,-2.0203,-2.0165,-2.0137,-2.0118,-2.0118,-2.0104,-2.0128,-2.0123,-2.0138,-2.0137,-2.0195,-2.02,-2.0132,-2.0133,-2.0133,0,-2.048,-2.0477,-2.0434,-2.0425,-2.0407,-2.0393,-2.0379,-2.0339,-2.0327,-2.0293,-2.0292,-2.0271,-2.0252,-2.0226,-2.0193,-2.0171,-2.0157,-2.0179,-2.0153,-2.0164,-2.0156,-2.0156,-2.0155,-2.0184,-2.0185,-2.0185,-2.0186,0,-2.0532,-2.0515,-2.0497,-2.0474,-2.046,-2.044,-2.0417,-2.0412,-2.0367,-2.0356,-2.0337,-2.0323,-2.0295,-2.0275,-2.0249,-2.0229,-2.02,-2.0195,-2.0197,-2.0206,-2.022,-2.0212,-2.0142,-2.0193,-2.0192,-2.0192,-2.0191,-2.0191,-2.0575,-2.0572,-2.0541,-2.0523,-2.0503,-2.0483,-2.0476,-2.0449,-2.0433,-2.0407,-2.0385,-2.0369,-2.034,-2.0302,-2.0284,-2.0271,-2.0257,-2.026,-2.026,-2.0261,-2.0265,-2.0224,-2.0267,-2.0266,-2.0266,-2.0266,-2.0266,0,-2.0625,-2.0604,-2.0588,-2.0558,-2.0545,-2.052,-2.0495,-2.0485,-2.0472,-2.0447,-2.043,-2.041,-2.0391,-2.0358,-2.0336,-2.0333,-2.0319,-2.0328,-2.0327,-2.0323,-2.028,-2.028,-2.034,-2.034,-2.034,-2.034,-2.034,-2.034,-2.0649,-2.0641,-2.0621,-2.0603,-2.0581,-2.0565,-2.0553,-2.0535,-2.0516,-2.0495,-2.048,-2.0458,-2.0431,-2.0407,-2.0389,-2.038,-2.0373,-2.0387,-2.0373,-2.0333,-2.0326,-2.0319,-2.0319,-2.0386,-2.0386,-2.0417,-2.0417,-2.0418]},{"header":{"parameterUnit":"m.s-1","parameterCategory":1,"la1":30.2991,"la2":30.254,"lo1":-89.0895,"lo2":-89.0444,"dy":0.0017,"dx":0.0017,"nx":28,"ny":28,"refTime":"2025-05-19T21:00:00:Z","depth":0,"parameterNumber":3,"parameterNumberName":"V-component_of_WINDS"},"data":[0,0,0,0,0,0,0,0,0,0,0,0,0,0,0,0,0,0,0,0,0,0,0,0,0,0,0,0,0,0,0,0,0,0,0,0,0,0,0,0,0,0,0,0,0,0,0,0,0,0,0,0,0,0,0,0,0,0,4.5186,4.5186,0,4.5182,4.5182,4.5182,4.5196,4.5196,4.5196,4.5197,4.5191,4.5191,4.519,0,0,0,0,0,0,0,0,0,0,0,0,0,4.5205,4.5205,4.5186,4.5186,4.5186,4.5182,4.5182,4.5182,4.5196,4.5196,4.5197,4.5197,4.5192,4.5191,4.519,0,0,0,0,0,0,0,0,0,0,0,0,0,4.5199,4.5205,4.5186,4.5192,4.5193,4.5182,4.5182,4.5182,4.5195,4.5196,4.5197,4.5197,4.5192,4.5191,4.519,4.5173,0,0,4.5188,4.5187,0,0,0,0,0,0,0,0,4.5199,4.5198,4.5191,4.5192,4.5192,4.519,4.5187,4.5179,4.5195,4.5194,4.5197,4.5198,4.519,4.519,4.5187,4.5172,4.5172,4.5188,4.5187,4.5187,4.5187,0,0,0,0,0,0,0,4.5199,4.5198,4.5184,4.5191,4.5192,4.5195,4.5195,4.5185,4.5189,4.5194,4.5195,4.5195,4.5191,4.5188,4.5187,4.5172,4.5188,4.5187,4.5186,4.5186,4.5146,4.5145,0,0,0,0,0,0,4.5199,4.5198,4.5184,4.5184,4.5197,4.5194,4.5194,4.519,4.5189,4.5189,4.5194,4.5196,4.5189,4.5188,4.5187,4.5169,4.5187,4.5186,4.5186,4.5146,4.5146,4.5145,0,0,0,0,0,0,4.52,4.5198,4.5185,4.5192,4.519,4.5193,4.5189,4.519,4.5187,4.5189,4.519,4.5191,4.519,4.5188,4.5177,4.5168,4.5186,4.5185,4.5147,4.5146,4.5145,4.513,0,0,0,0,0,0,4.52,4.5198,4.5191,4.5191,4.519,4.5174,4.5188,4.5189,4.5186,4.5188,4.5186,4.5186,4.519,4.5178,4.5176,4.5168,4.5184,4.5148,4.5147,4.5145,4.5131,4.5128,4.5126,0,0,0,0,0,4.5201,4.5186,4.519,4.5189,4.5181,4.5173,4.5172,4.5177,4.5185,4.5179,4.518,4.5187,4.517,4.5177,4.5175,4.5166,4.5148,4.5147,4.5146,4.5132,4.5129,4.5126,0,0,0,0,0,0,4.5183,4.5186,4.5191,4.5176,4.5174,4.5176,4.5167,4.5174,4.5169,4.5171,4.5177,4.5176,4.5164,4.5164,4.5172,4.5151,4.516,4.5159,4.5151,4.5148,4.5146,4.5146,4.5184,0,0,0,0,0,4.5177,4.5171,4.5174,4.516,4.5159,4.5164,4.516,4.5165,4.5163,4.5162,4.5163,4.5161,4.5156,4.5152,4.5147,4.5132,4.5132,4.5125,4.5122,4.512,4.5118,4.5113,4.511,4.5141,4.5141,4.5141,0,0,4.5165,4.5166,4.5161,4.5157,4.5156,4.515,4.5163,4.5155,4.515,4.5161,4.5151,4.5151,4.515,4.5137,4.5131,4.5136,4.5111,4.5119,4.5117,4.5116,4.5111,4.5108,4.5105,4.514,4.514,4.514,0,0,4.514,4.514,4.5129,4.5129,4.5129,4.5133,4.513,4.5131,4.5133,4.5123,4.5131,4.5126,4.5116,4.5116,4.5114,4.5093,4.5099,4.5091,4.5078,4.5072,4.507,4.5068,4.5061,4.5059,4.5089,4.5089,4.5089,0,4.5125,4.5116,4.5123,4.5116,4.5114,4.5125,4.5115,4.5114,4.5112,4.5111,4.5117,4.5107,4.5106,4.5094,4.509,4.5087,4.5086,4.509,4.507,4.5067,4.5066,4.506,4.5057,4.5088,4.5088,4.5088,4.5088,0,4.5098,4.5092,4.5084,4.5083,4.508,4.5071,4.5078,4.5075,4.508,4.5083,4.5074,4.5075,4.5071,4.5069,4.5073,4.5058,4.5062,4.5069,4.5079,4.5062,4.5056,4.5054,4.5087,4.5087,4.5087,4.5088,0,0,4.5059,4.5065,4.5062,4.5063,4.5065,4.506,4.5053,4.5051,4.5048,4.5047,4.5042,4.5035,4.5042,4.504,4.5045,4.504,4.5025,4.5048,4.5048,4.5044,4.5011,4.5006,4.5003,4.503,4.5029,4.5029,4.5011,0,4.5036,4.5024,4.5032,4.5018,4.5014,4.5026,4.502,4.5021,4.5024,4.5021,4.5025,4.502,4.5029,4.5029,4.5024,4.5028,4.5018,4.5029,4.5025,4.5025,4.5025,4.5,4.4994,4.4977,4.5009,4.5009,4.5008,0,4.5006,4.5006,4.4992,4.4998,4.4996,4.4991,4.499,4.4987,4.4989,4.4992,4.4992,4.4999,4.4993,4.5004,4.4996,4.5004,4.5003,4.5005,4.5004,4.5004,4.5015,4.4999,4.4972,4.497,4.5005,4.5005,4.5005,0,4.4981,4.4977,4.4969,4.4969,4.4975,4.4971,4.4973,4.4976,4.4975,4.4975,4.4975,4.4974,4.4973,4.4973,4.498,4.4987,4.4972,4.4983,4.4975,4.4975,4.4971,4.4971,4.4943,4.497,4.497,4.497,4.497,0,4.4954,4.4945,4.4958,4.4953,4.4945,4.4955,4.4946,4.495,4.4953,4.4949,4.4959,4.4956,4.4965,4.4963,4.4969,4.4963,4.4962,4.4965,4.4967,4.4964,4.4964,4.4964,4.4965,4.4969,4.4969,4.497,4.497,0,4.4923,4.4931,4.4924,4.4931,4.4933,4.4927,4.4933,4.4929,4.4935,4.493,4.493,4.4938,4.4936,4.4944,4.4943,4.4947,4.4939,4.4942,4.4938,4.4939,4.4931,4.4932,4.4902,4.49,4.4928,4.4927,4.4927,0,4.4906,4.49,4.4907,4.4906,4.4908,4.4906,4.4906,4.4916,4.4915,4.4919,4.4915,4.4915,4.4915,4.4912,4.4918,4.4918,4.4922,4.4912,4.4922,4.4921,4.4923,4.4924,4.4924,4.491,4.4909,4.4909,4.4909,0,4.4874,4.4879,4.4878,4.488,4.488,4.4881,4.4883,4.4882,4.4893,4.4892,4.4891,4.4891,4.4892,4.4892,4.4894,4.4897,4.4905,4.4906,4.4904,4.4902,4.49,4.4902,4.4933,4.4906,4.4906,4.4907,4.4907,4.4907,4.485,4.4846,4.4851,4.4851,4.4854,4.4857,4.4855,4.4861,4.486,4.4862,4.4868,4.4867,4.4872,4.4876,4.4878,4.4877,4.4882,4.488,4.4879,4.4878,4.4878,4.49,4.4878,4.4878,4.4878,4.4878,4.4878,0,4.4819,4.4824,4.4824,4.4828,4.4828,4.4837,4.484,4.484,4.4839,4.4843,4.4844,4.4844,4.4845,4.4852,4.4854,4.4853,4.4857,4.4853,4.4853,4.4854,4.4872,4.4874,4.485,4.485,4.485,4.485,4.485,4.485,4.4803,4.4798,4.4804,4.4802,4.4807,4.4806,4.4808,4.4811,4.4814,4.4814,4.4816,4.4821,4.4827,4.483,4.4831,4.4833,4.4834,4.4829,4.4833,4.485,4.4852,4.4855,4.4857,4.4829,4.4829,4.4814,4.4814,4.4814]}]]